Location: Newark
(11.5710°N, 104.9241°E)
Time: 17:28:59
(UTC+00:00)

N. Korean satellite - Visible Passes

Search period start: 28 January 2020 00:00
Search period end: 07 February 2020 00:00
Orbit: 454 x 507 km, 97.2° (Epoch: 28 January)

Date Brightness Start Highest point End Pass type
(mag) Time Alt. Az. Time Alt. Az. Time Alt. Az.
28 Jan 9.4 21:54:39 10° NE 21:57:26 20° E 22:00:15 10° SSE visible
29 Jan 7.5 23:02:00 10° NNW 23:05:09 27° WNW 23:08:20 10° SW visible
30 Jan 6.5 22:36:05 10° N 22:39:44 76° WNW 22:43:26 10° SSW visible
31 Jan 8.2 22:10:51 10° NNE 22:14:17 38° E 22:17:45 10° S visible
01 Feb 9.8 21:46:34 10° ENE 21:48:49 15° E 21:51:04 10° SE visible
02 Feb 7.1 22:53:07 10° N 22:56:33 37° WNW 23:00:00 10° SSW visible
03 Feb 6.8 22:27:26 10° NNE 22:31:07 77° E 22:34:49 10° S visible
04 Feb 8.8 22:02:26 10° NE 22:05:39 28° E 22:08:52 10° SSE visible
05 Feb 10.2 21:38:53 10° ENE 21:40:10 11° E 21:41:27 10° ESE visible
06 Feb 6.7 22:44:18 10° N 22:47:55 53° WNW 22:51:32 10° SSW visible
